EHI
0 0 0 0 0 0 0 0 0 1 4 10 17 26 37 48 57 64 69 70 73 79 82 81 78 74 69 67 64 62 58 53 47 41 34 30 29 26 22 20 17 14 11 9
0 0 0 0 0 0 0 0 0 1 6 13 21 31 44 53 61 69 73 75 77 80 82 81 79 76 73 70 67 63 57 51 46 41 36 32 30 28 24 20 17 13 10 7
0 0 0 0 0 0 0 0 0 3 8 17 28 41 53 60 67 74 78 80 82 82 82 81 79 78 76 72 68 63 55 50 46 43 39 35 32 28 23 18 15 11 8 6
0 0 0 0 1 1 1 2 4 7 11 20 32 44 55 64 70 77 81 84 86 86 83 80 79 78 76 72 67 61 54 48 46 44 40 34 29 24 19 16 12 9 7 6
0 0 0 1 2 2 3 5 10 14 18 23 30 39 53 66 73 80 84 86 88 87 83 80 79 79 76 71 66 59 51 45 43 41 35 29 24 20 17 15 11 8 6 6
0 0 0 2 3 3 4 9 16 22 26 30 34 41 57 73 79 81 84 85 85 86 84 82 81 79 75 71 65 56 46 41 37 34 29 23 19 17 16 13 9 7 6 6
0 0 3 6 8 10 16 24 29 33 35 41 49 58 69 80 84 83 84 83 84 86 86 84 82 79 75 70 63 54 45 39 33 29 24 19 16 16 14 11 7 6 6 6
3 6 13 19 23 28 38 43 43 42 43 50 63 72 77 81 84 84 83 83 84 84 82 80 79 77 73 68 60 53 46 38 31 27 22 17 17 16 12 8 6 5 4 4
13 18 27 35 41 46 48 49 47 44 45 52 63 72 75 77 80 80 79 80 81 79 75 73 72 71 69 64 59 52 46 38 31 26 22 19 16 13 9 6 5 4 3 3
24 26 31 37 42 44 44 43 42 41 42 48 56 63 68 71 73 72 72 73 75 74 70 67 64 63 61 60 55 49 42 36 29 24 21 18 14 9 6 5 3 3 3 3
26 27 28 28 30 33 35 37 37 38 41 47 52 58 62 66 68 67 67 68 69 68 67 63 59 56 55 53 49 43 36 31 26 20 16 14 10 6 4 2 1 2 2 2
28 28 27 23 21 24 30 33 34 35 41 48 53 55 57 60 63 63 65 67 66 65 63 60 55 53 51 47 42 38 32 27 22 16 12 9 7 5 3 1 0 1 1 1
34 30 25 21 19 22 29 33 34 35 38 44 49 51 53 55 59 60 61 62 62 60 57 54 52 51 49 43 37 34 30 24 19 15 10 6 4 5 4 2 1 0 0 0
30 27 22 19 21 25 30 34 35 33 34 40 46 48 48 51 54 54 54 54 53 52 48 45 46 47 46 41 36 32 27 21 17 13 9 5 4 5 5 3 2 1 0 0
19 19 18 17 20 24 28 31 32 30 31 36 42 43 42 44 47 48 47 47 46 44 42 41 42 42 40 36 33 29 22 17 15 12 9 5 3 4 4 3 2 1 0 0
12 14 15 16 17 19 22 25 26 26 27 30 34 38 38 38 41 42 40 40 41 42 43 43 42 39 34 29 27 23 17 12 10 10 8 4 2 1 1 1 1 0 0 0
9 10 12 14 14 13 14 17 20 21 21 23 26 30 33 33 35 36 33 32 36 42 45 44 41 35 28 22 19 16 11 8 7 7 6 4 1 0 0 0 0 0 0 0
6 8 9 10 10 9 9 10 12 13 15 17 20 23 25 27 29 31 29 29 32 37 41 39 32 25 21 17 13 10 8 6 6 6 5 4 2 0 0 0 0 0 0 0
6 7 6 7 7 6 6 6 8 8 9 12 15 16 18 20 24 27 28 27 28 32 35 32 23 18 16 13 10 8 6 5 4 4 4 3 1 0 0 0 0 0 0 0
6 5 5 4 4 5 5 5 6 6 6 8 10 11 12 13 17 20 21 21 23 27 28 24 19 18 15 10 7 6 5 4 3 3 3 1 0 0 0 0 0 0 0 0
2 3 4 4 4 4 5 5 4 4 4 4 5 6 6 7 9 12 12 11 14 18 18 14 13 14 12 8 5 5 5 4 3 3 1 0 0 0 0 0 0 0 0 0
0 0 1 3 4 5 5 4 3 2 2 2 3 3 3 3 4 5 5 5 6 8 9 8 6 7 7 6 5 4 4 3 3 2 1 0 0 0 0 0 0 0 0 0
1 1 2 4 5 5 3 2 1 1 1 1 2 2 1 1 1 1 1 2 3 3 5 5 3 2 2 4 4 4 3 3 3 1 0 0 0 0 0 0 0 0 0 0
3 3 5 6 4 2 1 0 0 1 1 1 2 1 0 0 0 1 2 2 1 1 1 2 1 0 0 1 2 2 2 2 2 1 0 0 0 0 0 0 0 0 0 0
5 5 6 5 3 1 0 0 0 0 0 1 1 1 0 0 1 2 3 2 0 0 0 0 0 0 0 0 0 1 1 1 1 0 0 0 0 0 0 0 0 0 0 0
6 5 5 3 1 0 0 0 0 0 0 1 1 1 0 1 2 3 3 1 0 0 0 0 0 0 0 0 0 0 0 0 0 0 0 0 0 0 0 0 0 0 0 0
6 4 2 1 0 0 0 0 0 0 0 1 2 1 1 2 3 3 2 1 0 0 0 0 0 0 0 0 0 0 0 0 0 0 0 0 0 0 0 0 0 0 0 0
Wind_Speed
17 15 13 14 15 17 16 14 12 9 8 6 7 9 9 9 10 10 10 11 11 11 11 10 10 9 9 8 8 8 7 7 6 6 5 5 5 5 4 5 6 5 5 5
16 17 16 15 15 16 16 15 14 12 6 4 7 8 8 9 10 10 10 10 11 12 12 11 10 10 9 9 8 8 7 7 6 6 5 5 5 5 5 5 5 5 6 6
14 16 17 17 15 15 13 14 13 12 6 5 7 9 9 9 9 10 11 10 10 10 11 10 10 9 9 9 9 8 7 7 7 7 6 5 6 6 6 5 5 6 6 7
12 14 18 13 12 13 13 12 11 8 4 4 5 7 9 8 8 9 10 11 10 10 11 11 10 10 9 9 9 9 8 7 7 7 7 6 6 6 5 4 5 5 5 6
11 14 15 12 10 10 9 6 3 3 1 3 6 7 6 7 7 7 8 8 9 10 11 11 11 11 10 10 9 9 8 7 7 7 7 6 6 6 5 4 5 5 5 5
11 13 13 9 8 7 7 6 1 0 1 1 4 4 3 6 6 6 7 8 8 10 11 11 11 11 10 9 9 8 8 7 7 6 6 6 6 6 5 4 5 5 5 5
14 13 9 6 6 6 7 2 2 1 2 2 3 3 4 6 7 7 8 9 9 9 10 9 10 10 9 9 9 8 8 8 7 6 6 6 6 5 5 4 4 5 5 4
13 13 7 4 2 1 3 5 4 4 3 4 5 6 6 7 9 8 9 10 10 9 9 9 10 10 9 8 8 8 8 8 8 7 6 6 6 5 4 5 5 4 4 4
4 2 4 7 7 6 5 5 4 3 3 3 4 6 6 6 8 8 8 9 8 9 10 9 8 8 9 8 8 9 8 8 7 6 5 6 6 5 5 4 4 4 4 4
3 4 4 6 6 7 6 5 4 3 2 2 4 6 7 7 7 8 8 8 7 9 9 9 8 7 7 8 8 8 8 7 6 6 6 5 4 4 3 3 3 3 3 3
2 2 3 4 5 6 6 5 4 4 4 4 5 6 7 7 7 7 7 7 7 7 8 9 8 8 8 8 9 9 8 7 6 6 5 4 3 3 2 3 2 1 1 3
1 1 1 4 4 5 4 3 4 4 4 4 5 5 6 6 6 6 6 6 6 7 8 8 9 8 8 8 8 8 8 7 6 6 6 5 5 5 10 6 6 8 7 5
3 3 3 4 4 4 3 3 4 4 3 3 4 4 4 5 5 5 6 6 6 6 7 7 8 8 8 8 8 7 7 7 6 6 6 6 6 6 5 4 7 8 8 8
4 3 2 2 3 3 4 5 4 3 2 3 3 3 4 4 5 5 5 4 5 6 7 7 7 7 7 8 7 7 7 6 6 5 6 6 6 6 5 6 5 3 4 5
2 1 1 2 2 2 2 2 2 2 2 2 2 3 4 4 4 4 4 4 5 6 7 7 7 7 7 8 8 7 7 6 5 5 5 5 5 6 5 6 5 6 5 4
2 1 1 1 1 1 2 1 2 2 2 1 2 2 3 3 3 3 4 4 5 6 6 6 6 7 7 8 7 6 5 6 6 5 5 5 6 6 5 6 5 5 6 6
3 3 3 2 1 0 1 2 2 1 2 1 2 2 2 3 3 3 3 3 3 4 5 6 6 7 7 7 7 6 6 6 7 6 5 5 5 6 5 5 5 5 5 6
4 4 3 3 2 1 1 2 2 2 2 1 1 1 2 2 2 2 2 2 3 3 4 5 6 7 6 6 5 5 6 6 6 5 5 5 4 4 5 5 5 6 5 6
4 4 3 2 2 2 1 1 1 1 3 2 0 1 2 2 2 2 2 2 4 4 4 5 6 7 6 6 5 4 5 6 6 5 4 5 5 5 5 5 5 6 6 6
3 3 3 3 3 2 2 1 1 1 1 2 1 0 1 1 1 1 1 1 2 2 3 5 7 6 6 6 6 5 6 6 6 5 5 5 6 5 5 5 5 5 5 5
3 3 3 2 2 2 1 1 1 1 2 2 2 2 1 1 1 1 2 2 1 2 3 5 5 5 5 4 5 5 5 6 6 6 5 5 5 5 5 5 5 5 5 5
2 3 3 2 2 1 1 1 1 2 2 2 2 2 1 2 2 2 2 1 1 2 3 4 4 4 4 5 5 6 5 5 5 5 5 4 4 4 5 5 4 5 4 4
2 3 2 2 1 1 0 1 2 2 2 2 2 2 2 2 2 2 2 2 2 3 3 2 3 5 5 4 4 5 5 5 4 4 4 5 4 4 4 5 4 4 4 4
1 2 1 1 1 1 2 2 2 2 3 3 3 3 2 2 2 2 1 1 2 4 2 2 5 5 5 4 4 4 4 4 4 4 4 4 4 4 4 3 3 3 4 4
1 1 2 2 2 2 2 2 3 4 4 3 3 2 2 2 1 0 1 3 4 3 3 4 5 5 5 3 3 3 2 1 2 2 2 3 3 4 4 4 3 3 3 4
1 1 1 1 2 2 2 3 3 2 2 2 2 1 1 1 1 1 1 3 4 3 2 3 3 4 3 2 2 2 2 2 2 2 2 2 3 3 3 3 4 3 3 3
1 1 1 1 2 2 2 2 2 2 1 1 1 1 1 1 2 2 2 2 3 3 2 3 3 2 2 2 2 2 2 2 2 2 2 2 3 3 3 3 2 2 2 2
Wind_Direction
262 262 246 227 222 228 236 246 252 250 229 185 156 148 146 146 146 149 151 155 154 151 149 148 146 147 147 146 142 140 139 135 129 123 118 109 98 88 79 81 83 74 72 67
256 259 253 247 233 230 231 237 245 248 244 158 144 142 139 146 155 156 158 161 157 155 151 152 152 152 149 147 142 140 139 137 130 127 121 115 111 103 91 82 79 75 71 65
249 249 254 246 240 233 232 234 242 244 228 184 154 147 149 150 159 159 162 167 162 158 154 155 155 151 152 147 143 141 140 139 138 135 127 123 113 101 96 94 88 80 77 77
249 249 246 248 251 249 241 235 235 240 203 164 140 136 137 147 158 162 164 168 162 160 156 155 153 151 150 148 146 143 142 140 138 134 127 121 114 110 106 102 94 88 83 85
244 244 244 244 245 245 240 235 262 254 165 133 130 134 138 140 151 156 158 156 157 159 155 155 156 153 150 148 146 144 144 140 136 132 130 129 123 119 116 112 108 103 95 91
240 245 242 242 245 239 240 209 242 312 53 117 129 162 140 130 133 139 141 143 149 150 146 149 151 149 150 151 149 150 146 140 133 135 139 137 133 129 125 122 120 113 104 97
239 243 247 278 265 236 229 189 36 42 59 78 98 87 109 124 122 130 133 137 141 143 141 143 145 147 153 151 151 148 141 138 135 138 138 137 134 133 138 134 122 114 114 107
231 240 232 331 270 254 56 51 50 46 57 86 99 102 112 119 124 133 137 139 141 138 136 139 144 148 151 150 145 141 139 141 140 145 148 142 139 140 141 138 138 140 138 132
220 209 63 37 55 63 62 55 51 39 47 102 113 117 121 122 126 131 133 136 140 140 138 141 146 149 152 145 143 144 144 144 145 148 140 143 149 151 155 166 168 166 164 152
156 129 90 61 57 51 38 39 42 49 45 106 119 122 128 132 132 133 133 133 135 142 146 146 148 148 145 140 142 147 147 146 148 149 146 144 151 161 164 177 178 167 158 145
145 124 98 65 45 42 29 22 35 44 62 75 98 113 121 127 132 135 135 136 141 147 149 150 149 147 148 146 148 151 152 153 155 155 150 132 109 59 86 60 43 123 129 129
154 150 105 98 61 45 30 18 34 49 58 70 88 105 117 128 130 130 133 136 142 149 152 153 152 151 152 154 158 157 160 165 168 164 157 151 137 102 51 64 75 78 75 88
55 62 77 92 72 48 34 26 47 63 73 79 90 104 116 127 131 132 135 140 148 151 149 150 152 153 156 160 163 166 171 175 174 171 168 166 161 155 141 93 67 71 82 94
47 53 85 84 74 52 41 29 29 51 69 87 100 114 119 122 131 137 140 144 150 148 151 155 157 158 160 162 166 174 179 179 177 175 175 175 174 173 167 164 158 134 100 111
21 12 72 63 66 61 46 39 20 36 54 83 94 112 120 126 137 140 138 143 150 156 159 160 160 159 160 164 171 180 185 181 181 176 179 179 177 175 176 172 165 154 147 146
293 249 169 155 131 51 3 10 25 26 12 84 104 111 120 124 127 132 140 153 169 170 162 160 162 162 165 169 174 183 185 177 180 181 184 180 180 180 175 170 170 167 167 165
254 254 232 227 240 271 335 351 14 20 348 24 103 119 138 140 136 133 143 163 176 166 159 164 167 163 171 178 183 185 182 176 184 194 193 185 186 184 176 176 179 178 174 166
245 262 253 240 259 278 321 349 3 6 330 327 109 135 137 141 149 147 155 149 145 152 163 168 164 165 176 186 192 191 183 179 186 196 191 184 186 183 178 181 186 180 167 169
244 242 230 221 237 252 249 260 293 346 341 332 67 139 136 128 130 148 159 167 175 184 176 164 161 172 183 189 198 200 193 186 189 194 186 171 181 188 187 188 186 182 178 173
251 242 226 224 236 232 233 238 248 249 292 298 289 143 141 138 142 162 165 204 212 192 161 160 170 184 189 186 199 210 199 190 192 192 192 186 186 189 188 189 186 181 177 176
257 251 234 233 247 231 236 278 278 277 267 255 237 230 206 190 190 187 199 233 183 152 161 164 181 187 188 177 195 216 206 195 195 197 197 191 185 187 188 186 184 182 182 181
281 270 251 239 222 203 153 273 277 272 264 241 237 230 207 211 220 211 196 227 199 154 186 183 191 181 172 179 202 219 213 206 199 195 191 185 183 187 185 184 188 190 185 183
275 263 246 229 211 212 203 250 274 283 280 269 259 245 238 252 256 240 226 203 189 175 202 185 167 156 164 196 216 222 219 216 204 193 185 177 182 185 186 189 192 187 176 172
285 293 277 231 217 233 246 265 280 287 282 271 257 250 243 242 240 241 220 129 137 160 176 135 145 155 186 213 213 213 218 216 206 196 187 181 178 174 175 182 188 179 167 170
257 283 280 256 243 238 231 241 246 251 255 258 256 247 245 239 222 154 86 112 130 151 162 151 166 184 208 221 213 209 204 208 191 183 177 171 171 167 167 172 175 171 164 166
234 260 270 267 277 279 273 271 268 260 254 253 253 242 201 138 137 149 142 141 142 153 164 155 176 201 208 196 190 172 157 156 158 177 170 168 168 157 154 156 151 144 141 139
239 241 230 238 244 246 251 263 273 282 293 286 278 283 196 152 159 152 151 149 154 167 176 181 180 180 178 172 163 151 145 133 128 130 124 123 121 119 116 119 126 128 137 138